LXGBLPFR

Guest
Details From LXGB - Gibraltar
To LPFR - Faro
Flight Number -
Tags generated
Created
Modified
Stats Distance 137 nm / 253 km
Max Altitude 6,400 ft / 1,951 m
Waypoints 3
Social Downloads 1
Likes 0
Share VATSIM

Download

Looking for another format? Having issues loading an existing format? Contact us
Advertisement - Login to hide

Notes

Basic altitude profile: - Ascent Rate: 3000ft/min - Ascent Speed: 200kts - Cruise Altitude: 25000ft - Cruise Speed: 260kts - Descent Rate: 1500ft/min - Descent Speed: 200kts Options: - Use NATs: yes - Use PACOTS: yes - Use low airways: yes - Use high airways: yes

Route

LXGB PIREN LPFR

ID Type Via Altitude (ft/m) Position (lat/lon) Dist (leg/tot) Name
O LXGB APT - 0 / 0 36.15121 / -5.34966 - / 0 nm Gibraltar
PIREN FIX - 6,400 / 1,951 36.83333 / -7.38333 106 / 106 nm
O LPFR APT - 0 / 0 37.01534 / -7.97233 30 / 136 nm Faro

Altitude Profile

Advertisement - Login to hide

LXGB

Details ICAO LXGB (GIB)
Name Gibraltar
Region Gibralter
Timezone Europe/Gibraltar (UTC+2.0)
Stats Elevation 15 ft / 5 m (AMSL)
Location 36.151200° -5.349850°
Runways 1
Magnetic Variation 0.969° W

METAR

LXGB 230750Z 27014G25KT 7000 RA SCT015 SCT035 OVC050 12/10 Q1003 WHT BECMG 9999 NSW SCT025 BLU

Decode

TAF

Not found

Departure Runways

ID Width Length Bearing (true/mag) Surface Threshold Overrun Markings Lighting
09 148 ft / 45 m 5,836 ft / 1,779 m 87.52° / 88.49° ASPHALT 476 ft / 145 m 0 ft / 0 m UK-PREC-APP EDGE THRESHOLD REIL-OMNI
27 148 ft / 45 m 5,836 ft / 1,779 m 267.53° / 268.50° ASPHALT 354 ft / 108 m 0 ft / 0 m UK-PREC-APP EDGE THRESHOLD REIL-OMNI

LPFR

Details ICAO LPFR (FAO)
Name Faro
Region Portugal
Timezone Europe/Lisbon (UTC+1.0)
Stats Elevation 22 ft / 7 m (AMSL)
Location 37.015300° -7.972320°
Runways 1
Magnetic Variation 1.774° W

METAR

LPFR 230800Z 29013KT 9999 FEW020 13/08 Q1003

Decode

TAF

TAF LPFR 230500Z 2306/2406 28010KT 9999 SCT025 PROB40 TEMPO 2306/2324 8000 SHRA BKN020 FEW025CB BECMG 2400/2403 21015KT SCT015 BKN030

Decode

Destination Runways

ID Width Length Bearing (true/mag) Surface Threshold Overrun Markings Lighting
10 148 ft / 45 m 8,179 ft / 2,493 m 100.08° / 101.85° ASPHALT 148 ft / 45 m 0 ft / 0 m PREC-APP EDGE THRESHOLD REIL-OMNI
28 148 ft / 45 m 8,179 ft / 2,493 m 280.09° / 281.87° ASPHALT 144 ft / 44 m 0 ft / 0 m PREC-APP EDGE THRESHOLD REIL-OMNI

Approach Navaids

Runway Type Ident Frequency Range Bearing (true/mag) Slope Elevation
28 LOC-ILS IIF 109.50 MHz 18 nm / 33 km 280.08° / 281.85 ° - 22 ft / 7 m (AMSL)
28 GS IIF 109.50 MHz 10 nm / 19 km 280.17° / 281.95 ° 3.00° 24 ft / 7 m (AMSL)
28 DME IIF 109.50 MHz 18 nm / 33 km - - 24 ft / 7 m (AMSL)

Popular Alternatives